Regional Weather Roundup
Issued by NWS

Home | Current Version | Previous Version | Graphics & Text | Print | Product List | Glossary Off
Versions: 1 2 3 4 5 6 7 8 9 10 11 12 13 14 15 16 17 18 19 20 21 22 23 24 25 26 27 28 29 30 31 32 33 34 35 36 37 38 39 40 41 42 43 44 45 46 47 48 49 50

000
ASUS43 KTOP 262359
RWRKS

WEATHER ROUNDUP FOR KANSAS
NATIONAL WEATHER SERVICE GOODLAND KS
600 PM CST MON JAN 26 2015

NOTE:  "FAIR" INDICATES FEW OR NO CLOUDS BELOW 12,000 FEET WITH NO
SIGNIFICANT WEATHER AND/OR OBSTRUCTIONS TO VISIBILITY.

KSZ001>006-013>018-027>032-041>047-270100-
NORTHWEST KANSAS

CITY           SKY/WX    TMP DP  RH WIND       PRES   REMARKS
GOODLAND       CLEAR     51  32  48 NW6       30.14R
6HR MIN TEMP:  51; 6HR MAX TEMP:  68;

HAYS           CLEAR     63  28  27 NW8       30.05S
HILL CITY      CLEAR     63  28  26 NW9       30.06R
6HR MIN TEMP:  63; 6HR MAX TEMP:  72;

RUSSELL        CLEAR     60  31  33 N8        30.03R
6HR MIN TEMP:  60; 6HR MAX TEMP:  71;

$$

KSZ061>065-074>080-084>089-270100-
SOUTHWEST KANSAS

CITY           SKY/WX    TMP DP  RH WIND       PRES   REMARKS
DODGE CITY     CLEAR     60  28  29 N5        30.10R
6HR MIN TEMP:  60; 6HR MAX TEMP:  73;

ELKHART          N/A     64  32  30 NW3         N/A
GARDEN CITY    CLEAR     58  28  32 N8        30.12R
6HR MIN TEMP:  58; 6HR MAX TEMP:  71;

GREAT BEND     CLEAR     61  30  31 NW6       30.06R
LIBERAL        CLEAR     63  28  27 NW6       30.16R
$$

KSZ066>073-081>083-090>101-270100-
SOUTHEAST KANSAS

CITY           SKY/WX    TMP DP  RH WIND       PRES   REMARKS
CHANUTE        CLEAR     54  35  48 NW3       29.98R
6HR MIN TEMP:  51; 6HR MAX TEMP:  67;

COFFEYVILLE    CLEAR     60  36  40 NW9       29.98R
6HR MIN TEMP:  52; 6HR MAX TEMP:  68;

HUTCHINSON     CLEAR     63  33  32 NW8       30.03R
6HR MIN TEMP:  62; 6HR MAX TEMP:  74;

MEDICINE LODGE   N/A     64  32  30 N7        30.05R
NEWTON         CLEAR     57  30  35 NW6       30.05R
PARSONS        CLEAR     56  36  47 NW7       29.99R
6HR MIN TEMP:  52; 6HR MAX TEMP:  69;

WICHITA INTL   CLEAR     62  33  33 NW5       30.02R
6HR MIN TEMP:  62; 6HR MAX TEMP:  74;

WICHITA JABRA  CLEAR     60  33  36 NW7       30.02R
6HR MIN TEMP:  57; 6HR MAX TEMP:  72;

WINFIELD       CLEAR     59  31  34 NW6       30.02R
6HR MIN TEMP:  55; 6HR MAX TEMP:  73;

$$

KSZ007>012-019>026-033>040-048>060-102>105-270100-
NORTHEAST KANSAS

CITY           SKY/WX    TMP DP  RH WIND       PRES   REMARKS
CONCORDIA      CLEAR     57  33  40 N5        30.01R
6HR MIN TEMP:  57; 6HR MAX TEMP:  67;

EMPORIA        CLEAR     57  34  41 NW7       29.98R
6HR MIN TEMP:  54; 6HR MAX TEMP:  66;

LAWRENCE       CLEAR     49  29  46 NW7       29.97R
6HR MIN TEMP:  49; 6HR MAX TEMP:  65;

MANHATTAN      CLEAR     56  27  32 W3        30.00R
6HR MIN TEMP:  56; 6HR MAX TEMP:  68;

OLATHE IND     CLEAR     52  33  48 NW8       29.97R
6HR MIN TEMP:  48; 6HR MAX TEMP:  62;

OLATHE EXE     CLEAR     54  32  43 NW6       29.95R
6HR MIN TEMP:  47; 6HR MAX TEMP:  62;

SALINA         CLEAR     58  34  40 N3        30.02R
6HR MIN TEMP:  58; 6HR MAX TEMP:  71;

TOPEKA BILLARD CLEAR     58  29  33 NW6       29.98R
6HR MIN TEMP:  53; 6HR MAX TEMP:  66;

TOPEKA FORBES  CLEAR     52  30  43 N7        29.97R
6HR MIN TEMP:  52; 6HR MAX TEMP:  67;

$$


USA.gov is the U.S. government's official web portal to all federal, state and local government web resources and services.